Tracking 25686 objects as of 25-May-2022
HD Live streaming from Space Station
objects crossing your sky now

SL-6 R/B(2)

Track SL-6 R/B(2) now!


NORAD ID: 16533
Int'l Code: 1986-011F
Perigee: 6,821.0 km
Apogee: 32,950.1 km
Inclination: 70.9 °
Period: 705.7 minutes
Semi major axis: 26256 km
RCS: 5.6516 m2 (large)
Launch date: February 1, 1986
Source: Commonwealth of Independent States (former USSR) (CIS)
Launch site: PLESETSK MISSILE AND SPACE COMPLEX (PKMTR)

Note: This is a ROCKET BODY
aabbcc
Your satellite tracking list
Your tracking list is empty




NASA's NSSDC Master Catalog

Two Line Element Set (TLE):
1 16533U 86011F   22140.01141751  .00000060  00000-0  00000-0 0  9999
2 16533  70.9277 187.4700 4975738  44.1843 345.6999  2.04054437253662
Source of the keplerian elements: AFSPC